When you browse on this site, cookies collect data to enhance your experience and personalize the content and advertising you see.
Visit our Privacy Policy to learn more. By continuing to use the site, you agree to this use of cookies and data.

Hourly Weather Sharan

Today, 15 July, Wednesday

Time Temperature Precipitation Wind Pressure Humidity
00:00 +25°C° 0 mm 3 mps 587 mmHg 45%
01:00 +25°C° 0 mm 3 mps 587 mmHg 49%
02:00 +24°C° 0 mm 2 mps 586 mmHg 52%
03:00 +23°C° 0 mm 2 mps 586 mmHg 54%
04:00 +23°C° 0 mm 1 mps 586 mmHg 56%
05:00 +22°C° 0 mm 1 mps 586 mmHg 58%
06:00 +23°C° 0 mm 1 mps 586 mmHg 53%
07:00 +22°C° 0 mm 0 mps 587 mmHg 49%
08:00 +23°C° 0 mm 0 mps 588 mmHg 45%
09:00 +25°C° 0 mm 0 mps 588 mmHg 38%
10:00 +28°C° 0 mm 1 mps 589 mmHg 30%
11:00 +29°C° 0 mm 1 mps 589 mmHg 23%
12:00 +30°C° 0 mm 2 mps 589 mmHg 19%
13:00 +31°C° 0 mm 2 mps 589 mmHg 16%
14:00 +33°C° 0 mm 3 mps 589 mmHg 13%
15:00 +34°C° 0 mm 4 mps 589 mmHg 12%
16:00 +34°C° 0 mm 5 mps 589 mmHg 12%
17:00 +34°C° 0 mm 5 mps 589 mmHg 11%
18:00 +33°C° 0 mm 6 mps 588 mmHg 19%
19:00 +30°C° 0 mm 7 mps 588 mmHg 26%
20:00 +28°C° 0 mm 7 mps 587 mmHg 34%
21:00 +27°C° 0 mm 6 mps 587 mmHg 35%
22:00 +26°C° 0 mm 5 mps 587 mmHg 37%
23:00 +26°C° 0 mm 4 mps 588 mmHg 39%

Tomorrow, 16 July, Thursday

Time Temperature Precipitation Wind Pressure Humidity
00:00 +25°C° 0 mm 4 mps 587 mmHg 40%
01:00 +25°C° 0 mm 3 mps 587 mmHg 42%
02:00 +24°C° 0 mm 3 mps 586 mmHg 43%
03:00 +24°C° 0 mm 3 mps 586 mmHg 44%
04:00 +23°C° 0 mm 2 mps 586 mmHg 45%
05:00 +23°C° 0 mm 2 mps 586 mmHg 46%
06:00 +24°C° 0 mm 2 mps 586 mmHg 44%
07:00 +24°C° 0 mm 2 mps 587 mmHg 43%
08:00 +25°C° 0 mm 3 mps 587 mmHg 41%
09:00 +27°C° 0 mm 3 mps 588 mmHg 35%
10:00 +28°C° 0 mm 3 mps 588 mmHg 30%
11:00 +30°C° 0 mm 4 mps 588 mmHg 25%
12:00 +32°C° 0 mm 5 mps 589 mmHg 21%
13:00 +33°C° 0 mm 6 mps 589 mmHg 17%
14:00 +35°C° 0 mm 7 mps 589 mmHg 12%
15:00 +34°C° 0 mm 7 mps 589 mmHg 13%
16:00 +34°C° 0 mm 8 mps 589 mmHg 13%
17:00 +34°C° 0 mm 8 mps 589 mmHg 13%
18:00 +32°C° 0 mm 7 mps 588 mmHg 21%
19:00 +29°C° 0 mm 6 mps 587 mmHg 29%
20:00 +27°C° 0 mm 5 mps 587 mmHg 36%
21:00 +26°C° 0 mm 4 mps 587 mmHg 40%
22:00 +26°C° 0 mm 4 mps 587 mmHg 43%
23:00 +25°C° 0 mm 3 mps 587 mmHg 46%

Day after tomorrow, 17 July, Friday

Time Temperature Precipitation Wind Pressure Humidity
00:00 +24°C° 0 mm 3 mps 587 mmHg 48%
01:00 +24°C° 0 mm 2 mps 586 mmHg 49%
02:00 +23°C° 0 mm 2 mps 586 mmHg 50%
03:00 +23°C° 0 mm 2 mps 586 mmHg 51%
04:00 +22°C° 0 mm 1 mps 586 mmHg 52%
05:00 +22°C° 0 mm 1 mps 586 mmHg 53%
06:00 +23°C° 0 mm 1 mps 586 mmHg 50%
07:00 +24°C° 0 mm 1 mps 587 mmHg 47%
08:00 +25°C° 0 mm 1 mps 588 mmHg 44%
09:00 +27°C° 0 mm 2 mps 588 mmHg 37%
10:00 +29°C° 0 mm 3 mps 589 mmHg 30%
11:00 +30°C° 0 mm 4 mps 590 mmHg 22%
12:00 +32°C° 0 mm 5 mps 590 mmHg 19%
13:00 +33°C° 0 mm 6 mps 590 mmHg 16%
14:00 +34°C° 0 mm 7 mps 590 mmHg 13%
15:00 +35°C° 0 mm 7 mps 589 mmHg 12%
16:00 +35°C° 0 mm 6 mps 589 mmHg 12%
17:00 +35°C° 0 mm 6 mps 589 mmHg 11%
18:00 +33°C° 0 mm 6 mps 589 mmHg 15%
19:00 +32°C° 0 mm 5 mps 588 mmHg 20%
20:00 +29°C° 0 mm 4 mps 588 mmHg 24%
21:00 +29°C° 0 mm 4 mps 588 mmHg 29%
22:00 +28°C° 0 mm 5 mps 588 mmHg 34%
23:00 +27°C° 0 mm 5 mps 588 mmHg 39%

18 July, Saturday

Time Temperature Precipitation Wind Pressure Humidity
00:00 +27°C° 0 mm 4 mps 587 mmHg 41%
01:00 +26°C° 0 mm 3 mps 587 mmHg 43%
02:00 +25°C° 0 mm 3 mps 587 mmHg 45%
03:00 +24°C° 0 mm 2 mps 586 mmHg 47%
04:00 +24°C° 0 mm 1 mps 586 mmHg 49%
05:00 +23°C° 0 mm 1 mps 586 mmHg 51%
06:00 +24°C° 0 mm 1 mps 586 mmHg 47%
07:00 +23°C° 0 mm 0 mps 587 mmHg 42%
08:00 +24°C° 0 mm 0 mps 588 mmHg 37%
09:00 +28°C° 0 mm 2 mps 588 mmHg 30%
10:00 +30°C° 0 mm 3 mps 589 mmHg 22%
11:00 +32°C° 0 mm 4 mps 590 mmHg 15%
12:00 +33°C° 0 mm 5 mps 589 mmHg 14%
13:00 +34°C° 0 mm 5 mps 589 mmHg 13%
14:00 +35°C° 0 mm 5 mps 589 mmHg 11%
15:00 +35°C° 0 mm 5 mps 589 mmHg 11%
16:00 +35°C° 0 mm 4 mps 588 mmHg 10%
17:00 +35°C° 0 mm 4 mps 588 mmHg 9%
18:00 +34°C° 0 mm 3 mps 588 mmHg 10%
19:00 +32°C° 0 mm 2 mps 588 mmHg 10%
20:00 +31°C° 0 mm 2 mps 587 mmHg 11%
21:00 +30°C° 0 mm 2 mps 587 mmHg 14%
22:00 +29°C° 0 mm 2 mps 587 mmHg 17%
23:00 +28°C° 0 mm 2 mps 587 mmHg 20%

19 July, Sunday

Time Temperature Precipitation Wind Pressure Humidity
00:00 +27°C° 0 mm 2 mps 586 mmHg 22%
01:00 +26°C° 0 mm 2 mps 586 mmHg 24%
02:00 +26°C° 0 mm 2 mps 586 mmHg 26%
03:00 +25°C° 0 mm 1 mps 585 mmHg 28%
04:00 +24°C° 0 mm 1 mps 585 mmHg 30%
05:00 +23°C° 0 mm 1 mps 585 mmHg 32%
06:00 +25°C° 0 mm 2 mps 585 mmHg 29%
07:00 +26°C° 0 mm 2 mps 586 mmHg 26%
08:00 +28°C° 0 mm 2 mps 587 mmHg 23%
09:00 +29°C° 0 mm 2 mps 587 mmHg 21%
10:00 +31°C° 0 mm 2 mps 587 mmHg 19%
11:00 +32°C° 0 mm 2 mps 588 mmHg 17%
12:00 +34°C° 0 mm 2 mps 588 mmHg 15%
13:00 +34°C° 0 mm 3 mps 587 mmHg 14%
14:00 +35°C° 0 mm 3 mps 587 mmHg 12%
15:00 +35°C° 0 mm 4 mps 587 mmHg 12%
16:00 +36°C° 0 mm 4 mps 586 mmHg 12%
17:00 +36°C° 0 mm 5 mps 586 mmHg 12%
18:00 +34°C° 0 mm 5 mps 586 mmHg 14%
19:00 +33°C° 0 mm 5 mps 586 mmHg 16%
20:00 +32°C° 0 mm 6 mps 585 mmHg 17%
21:00 +30°C° 0 mm 5 mps 585 mmHg 19%
22:00 +29°C° 0 mm 4 mps 585 mmHg 20%
23:00 +28°C° 0 mm 3 mps 585 mmHg 22%

20 July, Monday

Time Temperature Precipitation Wind Pressure Humidity
00:00 +27°C° 0 mm 3 mps 584 mmHg 22%
01:00 +26°C° 0 mm 3 mps 584 mmHg 22%
02:00 +25°C° 0 mm 4 mps 583 mmHg 23%
03:00 +25°C° 0 mm 3 mps 583 mmHg 22%
04:00 +24°C° 0 mm 3 mps 583 mmHg 21%
05:00 +22°C° 0 mm 3 mps 583 mmHg 21%
06:00 +24°C° 0 mm 3 mps 583 mmHg 20%
07:00 +25°C° 0 mm 3 mps 584 mmHg 18%
08:00 +25°C° 0 mm 4 mps 584 mmHg 17%
09:00 +27°C° 0 mm 4 mps 585 mmHg 17%
10:00 +28°C° 0 mm 3 mps 585 mmHg 16%
11:00 +30°C° 0 mm 3 mps 586 mmHg 15%
12:00 +32°C° 0 mm 4 mps 586 mmHg 14%
13:00 +32°C° 0 mm 4 mps 586 mmHg 14%
14:00 +33°C° 0 mm 4 mps 586 mmHg 13%
15:00 +33°C° 0 mm 4 mps 585 mmHg 14%
16:00 +33°C° 0 mm 4 mps 585 mmHg 16%
17:00 +32°C° 0 mm 4 mps 585 mmHg 17%
18:00 +32°C° 0 mm 4 mps 585 mmHg 17%
19:00 +30°C° 0 mm 4 mps 585 mmHg 18%
20:00 +29°C° 0 mm 4 mps 585 mmHg 18%
21:00 +28°C° 0 mm 3 mps 585 mmHg 22%
22:00 +26°C° 0 mm 3 mps 585 mmHg 26%
23:00 +25°C° 0 mm 2 mps 585 mmHg 29%
Show more